Information on these data can be found in provided Readme document
Contact Info: Zachary Fasnacht (zachary.fasnacht@ssaihq.com); Nickolay Krotkov (nickolay.a.krotkov@nasa.gov); Lok Lamsal (lok.lamsal@nasa.gov)

FillValue: -999.
ScaleFactor: 1e15
Units: molecules/cm^2

Date(yyyy-mm-dd),City,Country,LonCenter,LatCenter,BoundingCoordinates,Median,Q1,Q3,Mean,Baseline_Median,Baseline_Q1,Baseline_Q3,Baseline_Mean,NumGoodSamples,NumTotalSamples
2015-01-01,Maputo,Mozambique,32.5732,-25.9692,[32.0732 -26.4692 33.0732 -25.4692],0.902,0.536,1.271,0.925,0.98,0.55,1.446,0.994,163.0,583.0
2015-01-02,Maputo,Mozambique,32.5732,-25.9692,[32.0732 -26.4692 33.0732 -25.4692],0.921,0.552,1.294,0.94,0.988,0.594,1.413,0.995,157.0,570.0
2015-01-03,Maputo,Mozambique,32.5732,-25.9692,[32.0732 -26.4692 33.0732 -25.4692],0.912,0.544,1.275,0.931,0.975,0.569,1.427,0.988,160.0,580.0
2015-01-04,Maputo,Mozambique,32.5732,-25.9692,[32.0732 -26.4692 33.0732 -25.4692],0.902,0.539,1.21,0.906,0.954,0.554,1.387,0.969,187.0,563.0
2015-01-05,Maputo,Mozambique,32.5732,-25.9692,[32.0732 -26.4692 33.0732 -25.4692],0.902,0.539,1.21,0.906,0.965,0.575,1.404,1.006,187.0,567.0
2015-01-06,Maputo,Mozambique,32.5732,-25.9692,[32.0732 -26.4692 33.0732 -25.4692],0.958,0.6,1.298,0.993,0.993,0.617,1.461,1.041,227.0,565.0
2015-01-07,Maputo,Mozambique,32.5732,-25.9692,[32.0732 -26.4692 33.0732 -25.4692],0.956,0.563,1.298,0.975,0.996,0.609,1.463,1.036,247.0,581.0
2015-01-08,Maputo,Mozambique,32.5732,-25.9692,[32.0732 -26.4692 33.0732 -25.4692],0.912,0.552,1.295,0.952,0.974,0.582,1.462,1.027,230.0,579.0
2015-01-09,Maputo,Mozambique,32.5732,-25.9692,[32.0732 -26.4692 33.0732 -25.4692],0.956,0.563,1.327,1.081,0.981,0.591,1.455,1.056,254.0,577.0
2015-01-10,Maputo,Mozambique,32.5732,-25.9692,[32.0732 -26.4692 33.0732 -25.4692],0.958,0.563,1.375,1.092,0.985,0.59,1.414,1.058,230.0,546.0
2015-01-11,Maputo,Mozambique,32.5732,-25.9692,[32.0732 -26.4692 33.0732 -25.4692],0.958,0.563,1.344,1.08,0.986,0.595,1.425,1.06,240.0,531.0
2015-01-12,Maputo,Mozambique,32.5732,-25.9692,[32.0732 -26.4692 33.0732 -25.4692],0.84,0.463,1.202,1.045,0.974,0.591,1.402,1.051,202.0,536.0
2015-01-13,Maputo,Mozambique,32.5732,-25.9692,[32.0732 -26.4692 33.0732 -25.4692],0.84,0.463,1.202,1.043,0.937,0.572,1.365,1.014,204.0,527.0
2015-01-14,Maputo,Mozambique,32.5732,-25.9692,[32.0732 -26.4692 33.0732 -25.4692],0.876,0.515,1.389,1.117,0.956,0.566,1.4,1.029,178.0,539.0
2015-01-15,Maputo,Mozambique,32.5732,-25.9692,[32.0732 -26.4692 33.0732 -25.4692],0.866,0.52,1.29,1.088,0.892,0.494,1.355,0.984,190.0,535.0
2015-01-16,Maputo,Mozambique,32.5732,-25.9692,[32.0732 -26.4692 33.0732 -25.4692],0.858,0.503,1.317,1.078,0.823,0.46,1.205,0.894,201.0,545.0
2015-01-17,Maputo,Mozambique,32.5732,-25.9692,[32.0732 -26.4692 33.0732 -25.4692],0.867,0.541,1.378,1.101,0.831,0.455,1.247,0.907,209.0,546.0
2015-01-18,Maputo,Mozambique,32.5732,-25.9692,[32.0732 -26.4692 33.0732 -25.4692],0.918,0.599,1.566,1.33,0.851,0.485,1.303,0.983,231.0,535.0
2015-01-19,Maputo,Mozambique,32.5732,-25.9692,[32.0732 -26.4692 33.0732 -25.4692],1.012,0.604,1.685,1.406,0.867,0.487,1.327,0.998,222.0,540.0
2015-01-20,Maputo,Mozambique,32.5732,-25.9692,[32.0732 -26.4692 33.0732 -25.4692],1.09,0.661,1.702,1.421,0.888,0.499,1.316,0.994,240.0,523.0
2015-01-21,Maputo,Mozambique,32.5732,-25.9692,[32.0732 -26.4692 33.0732 -25.4692],0.918,0.593,1.63,1.475,0.827,0.466,1.261,0.941,199.0,529.0
2015-01-22,Maputo,Mozambique,32.5732,-25.9692,[32.0732 -26.4692 33.0732 -25.4692],1.012,0.646,1.63,1.539,0.811,0.447,1.231,0.926,174.0,527.0
2015-01-23,Maputo,Mozambique,32.5732,-25.9692,[32.0732 -26.4692 33.0732 -25.4692],1.012,0.66,1.63,1.546,0.854,0.457,1.273,0.96,183.0,541.0
2015-01-24,Maputo,Mozambique,32.5732,-25.9692,[32.0732 -26.4692 33.0732 -25.4692],0.918,0.571,1.467,1.271,0.894,0.484,1.288,0.962,176.0,537.0
2015-01-25,Maputo,Mozambique,32.5732,-25.9692,[32.0732 -26.4692 33.0732 -25.4692],0.918,0.571,1.467,1.266,0.907,0.531,1.324,0.979,179.0,570.0
2015-01-26,Maputo,Mozambique,32.5732,-25.9692,[32.0732 -26.4692 33.0732 -25.4692],0.918,0.592,1.489,1.295,0.914,0.523,1.33,0.987,170.0,574.0
2015-01-27,Maputo,Mozambique,32.5732,-25.9692,[32.0732 -26.4692 33.0732 -25.4692],0.918,0.592,1.489,1.295,0.899,0.528,1.3,0.98,170.0,556.0
2015-01-28,Maputo,Mozambique,32.5732,-25.9692,[32.0732 -26.4692 33.0732 -25.4692],0.918,0.59,1.501,1.301,0.898,0.524,1.319,0.987,168.0,560.0
2015-01-29,Maputo,Mozambique,32.5732,-25.9692,[32.0732 -26.4692 33.0732 -25.4692],0.822,0.499,1.338,1.139,0.9,0.508,1.298,0.99,201.0,552.0
2015-01-30,Maputo,Mozambique,32.5732,-25.9692,[32.0732 -26.4692 33.0732 -25.4692],0.903,0.489,1.443,1.173,0.965,0.534,1.444,1.09,186.0,566.0
2015-01-31,Maputo,Mozambique,32.5732,-25.9692,[32.0732 -26.4692 33.0732 -25.4692],1.021,0.571,1.562,1.313,1.019,0.577,1.488,1.139,178.0,562.0
2015-02-01,Maputo,Mozambique,32.5732,-25.9692,[32.0732 -26.4692 33.0732 -25.4692],1.032,0.554,1.562,1.302,0.985,0.542,1.464,1.107,191.0,571.0
2015-02-02,Maputo,Mozambique,32.5732,-25.9692,[32.0732 -26.4692 33.0732 -25.4692],0.964,0.51,1.443,1.019,0.95,0.503,1.387,1.015,185.0,572.0
2015-02-03,Maputo,Mozambique,32.5732,-25.9692,[32.0732 -26.4692 33.0732 -25.4692],0.934,0.478,1.357,0.985,0.941,0.493,1.364,0.998,192.0,563.0
2015-02-04,Maputo,Mozambique,32.5732,-25.9692,[32.0732 -26.4692 33.0732 -25.4692],0.77,0.389,1.236,0.875,0.878,0.434,1.34,0.954,192.0,571.0
2015-02-05,Maputo,Mozambique,32.5732,-25.9692,[32.0732 -26.4692 33.0732 -25.4692],0.845,0.454,1.443,0.948,0.885,0.441,1.376,0.964,217.0,554.0
2015-02-06,Maputo,Mozambique,32.5732,-25.9692,[32.0732 -26.4692 33.0732 -25.4692],0.845,0.454,1.443,0.948,0.849,0.448,1.33,0.948,217.0,559.0
2015-02-07,Maputo,Mozambique,32.5732,-25.9692,[32.0732 -26.4692 33.0732 -25.4692],0.94,0.478,1.45,0.98,0.848,0.415,1.335,0.942,226.0,557.0
2015-02-08,Maputo,Mozambique,32.5732,-25.9692,[32.0732 -26.4692 33.0732 -25.4692],0.964,0.499,1.475,0.995,0.847,0.413,1.326,0.931,208.0,575.0
2015-02-09,Maputo,Mozambique,32.5732,-25.9692,[32.0732 -26.4692 33.0732 -25.4692],0.94,0.499,1.475,0.987,0.81,0.387,1.307,0.915,214.0,571.0
2015-02-10,Maputo,Mozambique,32.5732,-25.9692,[32.0732 -26.4692 33.0732 -25.4692],0.921,0.468,1.45,0.966,0.82,0.378,1.286,0.913,222.0,568.0
2015-02-11,Maputo,Mozambique,32.5732,-25.9692,[32.0732 -26.4692 33.0732 -25.4692],0.921,0.468,1.45,0.966,0.803,0.366,1.312,0.909,222.0,539.0
2015-02-12,Maputo,Mozambique,32.5732,-25.9692,[32.0732 -26.4692 33.0732 -25.4692],0.943,0.518,1.446,0.976,0.816,0.397,1.306,0.913,245.0,525.0
2015-02-13,Maputo,Mozambique,32.5732,-25.9692,[32.0732 -26.4692 33.0732 -25.4692],1.024,0.558,1.491,1.04,0.834,0.398,1.3,0.953,212.0,530.0
2015-02-14,Maputo,Mozambique,32.5732,-25.9692,[32.0732 -26.4692 33.0732 -25.4692],0.883,0.442,1.357,0.936,0.771,0.368,1.191,0.834,249.0,524.0
2015-02-15,Maputo,Mozambique,32.5732,-25.9692,[32.0732 -26.4692 33.0732 -25.4692],0.803,0.389,1.3,0.849,0.761,0.354,1.177,0.818,226.0,537.0
2015-02-16,Maputo,Mozambique,32.5732,-25.9692,[32.0732 -26.4692 33.0732 -25.4692],0.808,0.457,1.27,0.851,0.786,0.402,1.217,0.843,221.0,535.0
2015-02-17,Maputo,Mozambique,32.5732,-25.9692,[32.0732 -26.4692 33.0732 -25.4692],0.845,0.457,1.306,0.878,0.863,0.431,1.263,0.892,233.0,545.0
2015-02-18,Maputo,Mozambique,32.5732,-25.9692,[32.0732 -26.4692 33.0732 -25.4692],0.845,0.48,1.306,0.882,0.84,0.409,1.283,0.895,217.0,545.0
2015-02-19,Maputo,Mozambique,32.5732,-25.9692,[32.0732 -26.4692 33.0732 -25.4692],0.883,0.527,1.34,0.933,0.9,0.487,1.319,0.959,216.0,535.0
2015-02-20,Maputo,Mozambique,32.5732,-25.9692,[32.0732 -26.4692 33.0732 -25.4692],0.837,0.46,1.257,0.849,0.924,0.502,1.327,1.0,209.0,544.0
2015-02-21,Maputo,Mozambique,32.5732,-25.9692,[32.0732 -26.4692 33.0732 -25.4692],0.808,0.46,1.239,0.843,0.916,0.499,1.369,1.016,217.0,530.0
2015-02-22,Maputo,Mozambique,32.5732,-25.9692,[32.0732 -26.4692 33.0732 -25.4692],0.738,0.449,1.117,0.783,0.904,0.503,1.321,1.002,189.0,535.0
2015-02-23,Maputo,Mozambique,32.5732,-25.9692,[32.0732 -26.4692 33.0732 -25.4692],0.75,0.455,1.117,0.791,0.885,0.478,1.335,0.992,196.0,532.0
2015-02-24,Maputo,Mozambique,32.5732,-25.9692,[32.0732 -26.4692 33.0732 -25.4692],0.75,0.411,1.122,0.793,0.918,0.5,1.46,1.22,213.0,549.0
2015-02-25,Maputo,Mozambique,32.5732,-25.9692,[32.0732 -26.4692 33.0732 -25.4692],0.75,0.437,1.179,0.821,0.904,0.522,1.447,1.206,223.0,546.0
2015-02-26,Maputo,Mozambique,32.5732,-25.9692,[32.0732 -26.4692 33.0732 -25.4692],0.827,0.457,1.257,1.012,0.966,0.558,1.522,1.272,249.0,579.0
2015-02-27,Maputo,Mozambique,32.5732,-25.9692,[32.0732 -26.4692 33.0732 -25.4692],0.76,0.381,1.217,0.996,0.944,0.541,1.53,1.258,245.0,583.0
2015-02-28,Maputo,Mozambique,32.5732,-25.9692,[32.0732 -26.4692 33.0732 -25.4692],0.772,0.381,1.25,0.976,0.902,0.504,1.458,1.187,269.0,567.0
2015-03-01,Maputo,Mozambique,32.5732,-25.9692,[32.0732 -26.4692 33.0732 -25.4692],0.892,0.472,1.332,1.108,0.946,0.543,1.52,1.254,232.0,569.0
2015-03-02,Maputo,Mozambique,32.5732,-25.9692,[32.0732 -26.4692 33.0732 -25.4692],0.918,0.54,1.306,1.065,0.954,0.554,1.512,1.242,269.0,561.0
2015-03-03,Maputo,Mozambique,32.5732,-25.9692,[32.0732 -26.4692 33.0732 -25.4692],0.929,0.48,1.324,1.084,0.932,0.537,1.499,1.234,241.0,575.0
2015-03-04,Maputo,Mozambique,32.5732,-25.9692,[32.0732 -26.4692 33.0732 -25.4692],0.929,0.518,1.297,1.057,0.947,0.543,1.507,1.232,240.0,572.0
2015-03-05,Maputo,Mozambique,32.5732,-25.9692,[32.0732 -26.4692 33.0732 -25.4692],0.97,0.518,1.368,1.094,0.959,0.54,1.527,1.238,257.0,582.0
2015-03-06,Maputo,Mozambique,32.5732,-25.9692,[32.0732 -26.4692 33.0732 -25.4692],0.998,0.507,1.556,1.215,0.955,0.522,1.532,1.231,261.0,581.0
2015-03-07,Maputo,Mozambique,32.5732,-25.9692,[32.0732 -26.4692 33.0732 -25.4692],0.97,0.472,1.503,1.202,0.948,0.51,1.486,1.197,266.0,569.0
2015-03-08,Maputo,Mozambique,32.5732,-25.9692,[32.0732 -26.4692 33.0732 -25.4692],0.97,0.466,1.503,1.192,0.94,0.501,1.5,1.191,276.0,576.0
2015-03-09,Maputo,Mozambique,32.5732,-25.9692,[32.0732 -26.4692 33.0732 -25.4692],0.998,0.504,1.556,1.212,0.955,0.504,1.525,1.207,295.0,562.0
2015-03-10,Maputo,Mozambique,32.5732,-25.9692,[32.0732 -26.4692 33.0732 -25.4692],0.998,0.504,1.556,1.218,0.946,0.485,1.509,1.211,288.0,568.0
2015-03-11,Maputo,Mozambique,32.5732,-25.9692,[32.0732 -26.4692 33.0732 -25.4692],1.052,0.567,1.523,1.215,0.901,0.464,1.423,1.03,295.0,565.0
2015-03-12,Maputo,Mozambique,32.5732,-25.9692,[32.0732 -26.4692 33.0732 -25.4692],1.044,0.54,1.503,1.195,0.928,0.45,1.509,1.058,304.0,584.0
2015-03-13,Maputo,Mozambique,32.5732,-25.9692,[32.0732 -26.4692 33.0732 -25.4692],0.994,0.507,1.372,1.041,0.874,0.414,1.447,0.985,295.0,581.0
2015-03-14,Maputo,Mozambique,32.5732,-25.9692,[32.0732 -26.4692 33.0732 -25.4692],0.994,0.504,1.372,1.035,0.891,0.424,1.445,0.99,302.0,577.0
2015-03-15,Maputo,Mozambique,32.5732,-25.9692,[32.0732 -26.4692 33.0732 -25.4692],0.97,0.538,1.376,1.054,0.869,0.408,1.468,1.007,278.0,547.0
2015-03-16,Maputo,Mozambique,32.5732,-25.9692,[32.0732 -26.4692 33.0732 -25.4692],1.014,0.54,1.376,1.059,0.868,0.417,1.389,0.956,304.0,532.0
2015-03-17,Maputo,Mozambique,32.5732,-25.9692,[32.0732 -26.4692 33.0732 -25.4692],1.049,0.485,1.466,1.088,0.885,0.403,1.42,1.021,267.0,536.0
2015-03-18,Maputo,Mozambique,32.5732,-25.9692,[32.0732 -26.4692 33.0732 -25.4692],0.958,0.494,1.376,1.042,0.918,0.433,1.47,1.08,305.0,529.0
2015-03-19,Maputo,Mozambique,32.5732,-25.9692,[32.0732 -26.4692 33.0732 -25.4692],0.958,0.494,1.377,1.062,0.902,0.424,1.41,1.07,275.0,541.0
2015-03-20,Maputo,Mozambique,32.5732,-25.9692,[32.0732 -26.4692 33.0732 -25.4692],0.956,0.494,1.366,1.048,0.915,0.436,1.416,1.078,249.0,539.0
2015-03-21,Maputo,Mozambique,32.5732,-25.9692,[32.0732 -26.4692 33.0732 -25.4692],0.881,0.49,1.274,0.909,0.97,0.463,1.518,1.123,228.0,549.0
2015-03-22,Maputo,Mozambique,32.5732,-25.9692,[32.0732 -26.4692 33.0732 -25.4692],0.929,0.504,1.288,0.928,0.959,0.464,1.484,1.113,205.0,551.0
2015-03-23,Maputo,Mozambique,32.5732,-25.9692,[32.0732 -26.4692 33.0732 -25.4692],0.958,0.583,1.302,0.955,1.015,0.527,1.639,1.224,207.0,537.0
2015-03-24,Maputo,Mozambique,32.5732,-25.9692,[32.0732 -26.4692 33.0732 -25.4692],0.929,0.494,1.261,0.885,1.022,0.532,1.648,1.241,199.0,543.0
2015-03-25,Maputo,Mozambique,32.5732,-25.9692,[32.0732 -26.4692 33.0732 -25.4692],0.929,0.494,1.302,0.912,1.016,0.532,1.64,1.278,227.0,532.0
2015-03-26,Maputo,Mozambique,32.5732,-25.9692,[32.0732 -26.4692 33.0732 -25.4692],0.852,0.49,1.288,0.868,0.998,0.51,1.636,1.271,194.0,538.0
2015-03-27,Maputo,Mozambique,32.5732,-25.9692,[32.0732 -26.4692 33.0732 -25.4692],0.922,0.494,1.327,0.932,0.988,0.54,1.659,1.282,199.0,534.0
2015-03-28,Maputo,Mozambique,32.5732,-25.9692,[32.0732 -26.4692 33.0732 -25.4692],0.944,0.538,1.401,1.074,0.979,0.508,1.673,1.289,202.0,549.0
2015-03-29,Maputo,Mozambique,32.5732,-25.9692,[32.0732 -26.4692 33.0732 -25.4692],1.029,0.59,1.424,1.213,0.999,0.51,1.718,1.332,184.0,548.0
2015-03-30,Maputo,Mozambique,32.5732,-25.9692,[32.0732 -26.4692 33.0732 -25.4692],1.029,0.587,1.424,1.207,1.147,0.589,2.044,1.523,186.0,579.0
2015-03-31,Maputo,Mozambique,32.5732,-25.9692,[32.0732 -26.4692 33.0732 -25.4692],0.966,0.583,1.443,1.212,1.157,0.596,2.068,1.542,163.0,581.0
2015-04-01,Maputo,Mozambique,32.5732,-25.9692,[32.0732 -26.4692 33.0732 -25.4692],0.99,0.583,1.467,1.195,1.14,0.577,2.049,1.472,174.0,567.0
2015-04-02,Maputo,Mozambique,32.5732,-25.9692,[32.0732 -26.4692 33.0732 -25.4692],1.132,0.587,1.681,1.354,1.143,0.554,2.077,1.475,136.0,570.0
2015-04-03,Maputo,Mozambique,32.5732,-25.9692,[32.0732 -26.4692 33.0732 -25.4692],1.132,0.587,1.681,1.354,1.156,0.531,1.997,1.45,136.0,565.0
2015-04-04,Maputo,Mozambique,32.5732,-25.9692,[32.0732 -26.4692 33.0732 -25.4692],1.132,0.587,1.681,1.354,1.117,0.534,2.025,1.447,136.0,578.0
2015-04-05,Maputo,Mozambique,32.5732,-25.9692,[32.0732 -26.4692 33.0732 -25.4692],1.083,0.545,1.591,1.283,1.092,0.474,1.957,1.394,154.0,575.0
2015-04-06,Maputo,Mozambique,32.5732,-25.9692,[32.0732 -26.4692 33.0732 -25.4692],1.052,0.454,1.564,1.21,1.028,0.446,2.064,1.392,183.0,585.0
2015-04-07,Maputo,Mozambique,32.5732,-25.9692,[32.0732 -26.4692 33.0732 -25.4692],0.971,0.371,1.564,1.166,1.085,0.438,2.347,1.582,185.0,587.0
2015-04-08,Maputo,Mozambique,32.5732,-25.9692,[32.0732 -26.4692 33.0732 -25.4692],1.029,0.402,1.569,1.265,1.206,0.444,2.536,1.635,177.0,575.0
2015-04-09,Maputo,Mozambique,32.5732,-25.9692,[32.0732 -26.4692 33.0732 -25.4692],1.029,0.403,1.681,1.317,1.154,0.405,2.542,1.616,167.0,578.0
2015-04-10,Maputo,Mozambique,32.5732,-25.9692,[32.0732 -26.4692 33.0732 -25.4692],1.029,0.403,1.681,1.317,1.191,0.365,2.65,1.716,167.0,564.0
2015-04-11,Maputo,Mozambique,32.5732,-25.9692,[32.0732 -26.4692 33.0732 -25.4692],0.971,0.318,1.883,1.453,1.125,0.405,2.93,1.941,134.0,571.0
2015-04-12,Maputo,Mozambique,32.5732,-25.9692,[32.0732 -26.4692 33.0732 -25.4692],0.971,0.336,1.564,1.207,1.286,0.468,2.885,1.986,126.0,569.0
2015-04-13,Maputo,Mozambique,32.5732,-25.9692,[32.0732 -26.4692 33.0732 -25.4692],0.991,0.336,1.735,1.497,1.355,0.494,2.854,2.021,152.0,585.0
2015-04-14,Maputo,Mozambique,32.5732,-25.9692,[32.0732 -26.4692 33.0732 -25.4692],0.991,0.338,1.806,1.509,1.17,0.412,2.484,1.825,150.0,583.0
2015-04-15,Maputo,Mozambique,32.5732,-25.9692,[32.0732 -26.4692 33.0732 -25.4692],0.991,0.336,1.865,1.457,1.201,0.414,2.607,1.777,175.0,582.0
2015-04-16,Maputo,Mozambique,32.5732,-25.9692,[32.0732 -26.4692 33.0732 -25.4692],0.991,0.338,1.904,1.496,1.194,0.409,2.686,1.848,164.0,551.0
2015-04-17,Maputo,Mozambique,32.5732,-25.9692,[32.0732 -26.4692 33.0732 -25.4692],0.971,0.338,1.849,1.468,1.148,0.432,2.666,1.83,175.0,533.0
2015-04-18,Maputo,Mozambique,32.5732,-25.9692,[32.0732 -26.4692 33.0732 -25.4692],0.971,0.338,1.849,1.468,1.238,0.467,2.854,1.886,175.0,535.0
2015-04-19,Maputo,Mozambique,32.5732,-25.9692,[32.0732 -26.4692 33.0732 -25.4692],0.946,0.504,1.622,1.371,1.275,0.541,2.817,1.928,211.0,525.0
2015-04-20,Maputo,Mozambique,32.5732,-25.9692,[32.0732 -26.4692 33.0732 -25.4692],0.971,0.504,1.711,1.437,1.34,0.63,2.895,1.984,193.0,537.0
2015-04-21,Maputo,Mozambique,32.5732,-25.9692,[32.0732 -26.4692 33.0732 -25.4692],1.392,0.753,3.091,2.813,1.5,0.7,3.155,2.383,193.0,532.0
2015-04-22,Maputo,Mozambique,32.5732,-25.9692,[32.0732 -26.4692 33.0732 -25.4692],1.656,0.863,5.745,3.932,1.428,0.717,3.256,2.365,205.0,541.0
2015-04-23,Maputo,Mozambique,32.5732,-25.9692,[32.0732 -26.4692 33.0732 -25.4692],1.835,0.897,5.745,3.913,1.457,0.729,3.181,2.326,221.0,542.0
2015-04-24,Maputo,Mozambique,32.5732,-25.9692,[32.0732 -26.4692 33.0732 -25.4692],2.06,0.911,5.863,3.996,1.563,0.776,3.267,2.423,230.0,530.0
2015-04-25,Maputo,Mozambique,32.5732,-25.9692,[32.0732 -26.4692 33.0732 -25.4692],2.261,0.916,6.92,4.461,1.596,0.788,3.546,2.705,248.0,534.0
2015-04-26,Maputo,Mozambique,32.5732,-25.9692,[32.0732 -26.4692 33.0732 -25.4692],2.234,0.939,6.074,4.209,1.546,0.766,3.417,2.651,272.0,513.0
2015-04-27,Maputo,Mozambique,32.5732,-25.9692,[32.0732 -26.4692 33.0732 -25.4692],2.41,1.16,6.806,4.481,1.652,0.827,3.98,3.107,260.0,519.0
2015-04-28,Maputo,Mozambique,32.5732,-25.9692,[32.0732 -26.4692 33.0732 -25.4692],3.69,1.392,10.087,5.668,2.022,0.922,4.888,3.453,267.0,516.0
2015-04-29,Maputo,Mozambique,32.5732,-25.9692,[32.0732 -26.4692 33.0732 -25.4692],3.524,1.392,9.958,5.601,2.057,0.976,4.915,3.597,298.0,532.0
2015-04-30,Maputo,Mozambique,32.5732,-25.9692,[32.0732 -26.4692 33.0732 -25.4692],4.264,1.479,10.331,5.873,2.349,1.065,5.18,3.83,271.0,527.0
2015-05-01,Maputo,Mozambique,32.5732,-25.9692,[32.0732 -26.4692 33.0732 -25.4692],3.69,1.392,10.087,5.679,2.235,1.025,5.112,3.765,287.0,564.0
2015-05-02,Maputo,Mozambique,32.5732,-25.9692,[32.0732 -26.4692 33.0732 -25.4692],3.431,1.392,9.958,5.53,2.276,1.078,5.364,3.795,303.0,571.0
2015-05-03,Maputo,Mozambique,32.5732,-25.9692,[32.0732 -26.4692 33.0732 -25.4692],3.63,1.415,9.664,5.54,2.425,1.129,5.569,3.814,322.0,549.0
2015-05-04,Maputo,Mozambique,32.5732,-25.9692,[32.0732 -26.4692 33.0732 -25.4692],5.884,2.195,10.453,6.54,2.807,1.263,5.739,4.169,286.0,552.0
2015-05-05,Maputo,Mozambique,32.5732,-25.9692,[32.0732 -26.4692 33.0732 -25.4692],4.082,1.751,9.786,5.753,2.571,1.18,6.023,4.15,309.0,542.0
2015-05-06,Maputo,Mozambique,32.5732,-25.9692,[32.0732 -26.4692 33.0732 -25.4692],3.166,1.548,9.471,5.451,2.263,1.093,5.344,3.925,280.0,556.0
2015-05-07,Maputo,Mozambique,32.5732,-25.9692,[32.0732 -26.4692 33.0732 -25.4692],2.85,1.558,8.072,4.806,2.272,1.105,5.662,3.839,275.0,553.0
2015-05-08,Maputo,Mozambique,32.5732,-25.9692,[32.0732 -26.4692 33.0732 -25.4692],3.166,1.599,9.453,5.428,2.244,1.057,5.507,3.961,288.0,564.0
2015-05-09,Maputo,Mozambique,32.5732,-25.9692,[32.0732 -26.4692 33.0732 -25.4692],3.427,1.686,9.951,5.79,2.302,1.076,5.454,3.981,280.0,564.0
2015-05-10,Maputo,Mozambique,32.5732,-25.9692,[32.0732 -26.4692 33.0732 -25.4692],3.208,1.599,9.453,5.446,2.212,1.079,5.115,3.683,270.0,556.0
2015-05-11,Maputo,Mozambique,32.5732,-25.9692,[32.0732 -26.4692 33.0732 -25.4692],3.585,1.599,9.879,5.685,2.295,1.107,5.151,3.646,264.0,567.0
2015-05-12,Maputo,Mozambique,32.5732,-25.9692,[32.0732 -26.4692 33.0732 -25.4692],3.427,1.599,9.453,5.489,2.1,1.081,4.41,3.21,288.0,546.0
2015-05-13,Maputo,Mozambique,32.5732,-25.9692,[32.0732 -26.4692 33.0732 -25.4692],2.484,1.401,6.057,4.315,1.809,1.015,3.379,2.776,247.0,554.0
2015-05-14,Maputo,Mozambique,32.5732,-25.9692,[32.0732 -26.4692 33.0732 -25.4692],2.377,1.198,4.702,3.865,1.798,0.975,3.026,2.574,255.0,554.0
2015-05-15,Maputo,Mozambique,32.5732,-25.9692,[32.0732 -26.4692 33.0732 -25.4692],2.189,1.14,4.649,3.762,1.814,0.98,3.551,2.7,282.0,574.0
2015-05-16,Maputo,Mozambique,32.5732,-25.9692,[32.0732 -26.4692 33.0732 -25.4692],2.131,1.173,4.649,3.768,1.825,1.013,3.569,2.712,279.0,563.0
2015-05-17,Maputo,Mozambique,32.5732,-25.9692,[32.0732 -26.4692 33.0732 -25.4692],2.53,1.343,6.138,4.439,1.914,1.051,3.989,3.055,280.0,562.0
2015-05-18,Maputo,Mozambique,32.5732,-25.9692,[32.0732 -26.4692 33.0732 -25.4692],2.377,1.198,5.66,4.337,1.831,0.99,3.895,2.988,261.0,538.0
2015-05-19,Maputo,Mozambique,32.5732,-25.9692,[32.0732 -26.4692 33.0732 -25.4692],2.189,1.166,4.964,4.142,1.823,1.002,3.877,3.175,281.0,521.0
2015-05-20,Maputo,Mozambique,32.5732,-25.9692,[32.0732 -26.4692 33.0732 -25.4692],2.573,1.149,6.161,4.649,1.892,0.985,4.155,3.283,258.0,528.0
2015-05-21,Maputo,Mozambique,32.5732,-25.9692,[32.0732 -26.4692 33.0732 -25.4692],3.797,1.578,9.352,6.179,2.191,1.071,4.946,3.665,294.0,518.0
2015-05-22,Maputo,Mozambique,32.5732,-25.9692,[32.0732 -26.4692 33.0732 -25.4692],4.096,1.451,10.094,6.538,2.117,0.944,4.767,3.533,265.0,532.0
2015-05-23,Maputo,Mozambique,32.5732,-25.9692,[32.0732 -26.4692 33.0732 -25.4692],3.797,1.451,10.094,6.195,2.131,0.95,5.013,3.58,262.0,529.0
2015-05-24,Maputo,Mozambique,32.5732,-25.9692,[32.0732 -26.4692 33.0732 -25.4692],3.089,1.239,8.835,5.762,1.981,0.915,5.54,3.667,277.0,538.0
2015-05-25,Maputo,Mozambique,32.5732,-25.9692,[32.0732 -26.4692 33.0732 -25.4692],2.829,1.229,8.796,5.554,1.93,0.822,5.848,3.664,286.0,537.0
2015-05-26,Maputo,Mozambique,32.5732,-25.9692,[32.0732 -26.4692 33.0732 -25.4692],2.644,1.166,8.796,5.391,1.835,0.833,5.592,3.569,293.0,528.0
2015-05-27,Maputo,Mozambique,32.5732,-25.9692,[32.0732 -26.4692 33.0732 -25.4692],2.573,1.149,8.835,5.417,1.846,0.829,5.961,3.791,287.0,541.0
2015-05-28,Maputo,Mozambique,32.5732,-25.9692,[32.0732 -26.4692 33.0732 -25.4692],3.135,1.233,8.319,5.502,2.329,0.92,6.169,4.029,311.0,519.0
2015-05-29,Maputo,Mozambique,32.5732,-25.9692,[32.0732 -26.4692 33.0732 -25.4692],3.87,1.518,9.509,6.26,2.358,0.939,6.075,4.019,272.0,523.0
2015-05-30,Maputo,Mozambique,32.5732,-25.9692,[32.0732 -26.4692 33.0732 -25.4692],3.418,1.391,9.352,6.042,2.277,0.904,5.818,4.226,258.0,520.0
2015-05-31,Maputo,Mozambique,32.5732,-25.9692,[32.0732 -26.4692 33.0732 -25.4692],3.614,1.307,9.352,6.06,2.202,0.872,5.765,4.246,279.0,538.0
2015-06-01,Maputo,Mozambique,32.5732,-25.9692,[32.0732 -26.4692 33.0732 -25.4692],3.623,1.372,9.509,6.1,2.066,0.831,5.382,4.023,270.0,532.0
2015-06-02,Maputo,Mozambique,32.5732,-25.9692,[32.0732 -26.4692 33.0732 -25.4692],3.87,1.445,8.835,5.995,2.234,0.894,5.649,4.23,297.0,567.0
2015-06-03,Maputo,Mozambique,32.5732,-25.9692,[32.0732 -26.4692 33.0732 -25.4692],3.972,1.419,9.125,6.099,2.212,0.93,4.719,3.855,299.0,575.0
2015-06-04,Maputo,Mozambique,32.5732,-25.9692,[32.0732 -26.4692 33.0732 -25.4692],3.569,1.419,8.796,5.775,2.224,1.004,4.782,3.796,320.0,558.0
2015-06-05,Maputo,Mozambique,32.5732,-25.9692,[32.0732 -26.4692 33.0732 -25.4692],2.455,1.136,6.062,4.135,1.984,0.946,4.043,3.486,284.0,563.0
2015-06-06,Maputo,Mozambique,32.5732,-25.9692,[32.0732 -26.4692 33.0732 -25.4692],1.859,0.933,4.452,3.558,1.959,1.01,4.119,3.573,319.0,556.0
2015-06-07,Maputo,Mozambique,32.5732,-25.9692,[32.0732 -26.4692 33.0732 -25.4692],1.737,0.81,3.739,2.967,1.983,1.017,3.907,3.746,290.0,568.0
2015-06-08,Maputo,Mozambique,32.5732,-25.9692,[32.0732 -26.4692 33.0732 -25.4692],1.826,0.909,3.972,3.048,1.901,0.976,3.968,3.539,286.0,566.0
2015-06-09,Maputo,Mozambique,32.5732,-25.9692,[32.0732 -26.4692 33.0732 -25.4692],1.859,0.925,4.149,3.147,2.377,1.442,4.245,3.97,302.0,576.0
2015-06-10,Maputo,Mozambique,32.5732,-25.9692,[32.0732 -26.4692 33.0732 -25.4692],2.102,0.991,4.246,3.265,2.639,1.532,4.725,4.373,296.0,576.0
2015-06-11,Maputo,Mozambique,32.5732,-25.9692,[32.0732 -26.4692 33.0732 -25.4692],2.102,1.117,4.149,3.236,2.762,1.534,4.412,4.182,304.0,565.0
2015-06-12,Maputo,Mozambique,32.5732,-25.9692,[32.0732 -26.4692 33.0732 -25.4692],1.984,0.991,3.743,3.438,2.635,1.121,4.803,4.36,297.0,577.0
2015-06-13,Maputo,Mozambique,32.5732,-25.9692,[32.0732 -26.4692 33.0732 -25.4692],1.846,0.935,3.679,3.3,2.739,1.163,5.258,4.449,308.0,558.0
2015-06-14,Maputo,Mozambique,32.5732,-25.9692,[32.0732 -26.4692 33.0732 -25.4692],1.985,1.191,3.859,3.53,2.859,1.339,5.657,4.341,294.0,563.0
2015-06-15,Maputo,Mozambique,32.5732,-25.9692,[32.0732 -26.4692 33.0732 -25.4692],1.909,1.091,3.45,3.234,3.267,1.46,5.555,4.409,299.0,563.0
2015-06-16,Maputo,Mozambique,32.5732,-25.9692,[32.0732 -26.4692 33.0732 -25.4692],1.859,1.051,3.202,3.828,3.5,1.461,5.607,4.729,316.0,581.0